FW8672 Weather Reports


Display with metric or nautical units.
time (UTC)temp
F
wind
direction
speed
MPH
gust
MPH
rain 1hr
in
rain 24hr
in
rain mn
in
humidity
%
barometer
mb
20260507114518 67 57 0.0 4.0 0.00 0.00 0.00 78 1015.4
20260507114327 68 58 1.0 4.0 0.00 0.00 0.00 78 1015.5
20260507113839 67 41 1.0 3.0 0.00 0.00 0.00 78 1015.4
20260507113323 67 41 1.0 3.0 0.00 0.00 0.00 78 1015.2
20260507113023 67 55 0.0 3.0 0.00 0.00 0.00 78 1015.0
20260507112836 67 169 0.0 1.0 0.00 0.00 0.00 78 1015.2
20260507112349 67 169 0.0 1.0 0.00 0.00 0.00 78 1015.0
20260507111835 67 169 0.0 1.0 0.00 0.00 0.00 78 1015.0
20260507111527 66 169 0.0 1.0 0.00 0.00 0.00 78 1014.9
20260507111326 67 169 0.0 0.0 0.00 0.00 0.00 78 1014.9
20260507110839 67 169 0.0 1.0 0.00 0.00 0.00 78 1014.8
20260507110322 67 169 0.0 1.0 0.00 0.00 0.00 78 1014.7
20260507110032 66 169 0.0 0.0 0.00 0.00 0.00 78 1014.5
20260507105835 67 169 0.0 0.0 0.00 0.00 0.00 78 1014.5
20260507105348 66 169 0.0 0.0 0.00 0.00 0.00 77 1014.3
20260507104852 66 169 0.0 0.0 0.00 0.00 0.00 77 1014.3
20260507104524 66 169 0.0 0.0 0.00 0.00 0.00 77 1014.2
20260507104324 66 169 0.0 0.0 0.00 0.00 0.00 77 1014.2
20260507103837 67 169 0.0 0.0 0.00 0.00 0.00 77 1014.2
20260507103320 67 169 0.0 0.0 0.00 0.00 0.00 77 1014.2
20260507103023 66 169 0.0 0.0 0.00 0.00 0.00 77 1014.0
20260507102853 66 169 0.0 0.0 0.00 0.00 0.00 77 1014.1
20260507102325 66 169 0.0 0.0 0.00 0.00 0.00 77 1014.2
20260507101838 67 169 0.0 0.0 0.00 0.00 0.00 76 1014.3
20260507101508 66 169 0.0 0.0 0.00 0.00 0.00 77 1014.2
20260507101322 67 169 0.0 0.0 0.00 0.00 0.00 76 1014.2
20260507100832 67 169 0.0 0.0 0.00 0.00 0.00 76 1014.4
20260507100342 67 169 0.0 0.0 0.00 0.00 0.00 76 1014.4
20260507100020 66 169 0.0 0.0 0.00 0.00 0.00 76 1014.3
20260507095846 67 169 0.0 0.0 0.00 0.00 0.00 76 1014.3
20260507095337 67 169 0.0 0.0 0.00 0.00 0.00 76 1014.3
20260507094830 67 169 0.0 0.0 0.00 0.00 0.00 76 1014.2
20260507094601 67 169 0.0 0.0 0.00 0.00 0.00 76 1014.3
20260507094343 67 169 0.0 0.0 0.00 0.00 0.00 76 1014.3
20260507093827 67 169 0.0 0.0 0.00 0.00 0.00 75 1014.3
20260507093400 67 169 0.0 0.0 0.00 0.00 0.00 75 1014.3
20260507093038 67 169 0.0 0.0 0.00 0.00 0.00 75 1014.1
20260507092832 67 169 0.0 0.0 0.00 0.00 0.00 75 1014.1
20260507092336 67 169 0.0 0.0 0.00 0.00 0.00 75 1014.2
20260507091828 68 169 0.0 0.0 0.00 0.00 0.00 74 1014.3
20260507091555 67 169 0.0 0.0 0.00 0.00 0.00 74 1014.2
20260507091341 68 169 0.0 0.0 0.00 0.00 0.00 74 1014.2
20260507090825 68 169 0.0 0.0 0.00 0.00 0.00 74 1014.0
20260507090338 68 169 0.0 0.0 0.00 0.00 0.00 74 1013.9
20260507090108 68 169 0.0 0.0 0.00 0.00 0.00 74 1013.7
20260507085822 68 169 0.0 0.0 0.00 0.00 0.00 74 1013.7
20260507085335 68 169 0.0 0.0 0.00 0.00 0.00 74 1013.7
20260507084827 68 169 0.0 0.0 0.00 0.00 0.00 74 1013.3
20260507084547 68 169 0.0 0.0 0.00 0.00 0.00 74 1013.2
20260507084340 69 169 0.0 0.0 0.00 0.00 0.00 74 1013.2
20260507083824 69 169 0.0 1.0 0.00 0.00 0.00 73 1013.3
20260507083337 69 169 0.0 1.0 0.00 0.00 0.00 73 1013.1
20260507083100 68 169 0.0 0.0 0.00 0.00 0.00 73 1013.0
20260507082821 69 169 0.0 0.0 0.00 0.00 0.00 73 1012.9
20260507082329 69 169 0.0 1.0 0.00 0.00 0.00 72 1012.9
20260507081822 69 169 0.0 1.0 0.00 0.00 0.00 72 1012.9
20260507081602 69 169 0.0 0.0 0.00 0.00 0.00 72 1012.8
20260507081326 70 169 0.0 0.0 0.00 0.00 0.00 71 1012.9
20260507080839 70 169 0.0 0.0 0.00 0.00 0.00 71 1013.0
20260507080332 70 169 0.0 0.0 0.00 0.00 0.00 70 1012.9
20260507080103 70 169 0.0 0.0 0.00 0.00 0.00 70 1013.0
20260507075836 71 169 0.0 0.0 0.00 0.00 0.00 70 1013.1
20260507075349 71 169 0.0 0.0 0.00 0.00 0.00 69 1013.1
20260507074821 71 169 0.0 0.0 0.00 0.00 0.00 69 1013.0
20260507074547 71 169 0.0 0.0 0.00 0.00 0.00 68 1013.0
20260507074334 72 169 0.0 0.0 0.00 0.00 0.00 68 1013.0
20260507073838 72 169 0.0 0.0 0.00 0.00 0.00 68 1013.1
20260507073350 72 169 0.0 1.0 0.00 0.00 0.00 68 1013.2
20260507073031 72 169 0.0 2.0 0.00 0.00 0.00 68 1013.1
20260507072822 72 169 0.0 2.0 0.00 0.00 0.00 68 1013.2
20260507072326 72 168 0.0 2.0 0.00 0.00 0.00 67 1013.4
20260507071837 73 169 0.0 2.0 0.00 0.00 0.00 67 1013.4
20260507071532 72 168 0.0 2.0 0.00 0.00 0.00 67 1013.4
20260507071329 72 168 0.0 2.0 0.00 0.00 0.00 67 1013.5
20260507070843 72 169 0.0 1.0 0.00 0.00 0.00 67 1013.7
20260507070326 73 169 0.0 1.0 0.00 0.00 0.00 67 1013.6
20260507070050 72 169 0.0 2.0 0.00 0.00 0.00 67 1013.5
20260507065821 73 169 0.0 2.0 0.00 0.00 0.00 67 1013.6
20260507065324 73 169 0.0 2.0 0.00 0.00 0.00 67 1013.5
20260507064853 73 169 0.0 2.0 0.00 0.00 0.00 66 1013.7
20260507064520 72 169 0.0 3.0 0.00 0.00 0.00 66 1013.7
20260507064325 73 166 1.0 3.0 0.00 0.00 0.00 66 1013.8
20260507063838 73 163 1.0 3.0 0.00 0.00 0.00 66 1013.8
20260507063321 73 146 0.0 3.0 0.00 0.00 0.00 66 1013.9
20260507063024 72 146 0.0 3.0 0.00 0.00 0.00 66 1013.9
20260507062834 73 130 1.0 5.0 0.00 0.00 0.00 66 1014.0
20260507062347 73 190 0.0 5.0 0.00 0.00 0.00 66 1014.1
20260507061831 73 177 0.0 2.0 0.00 0.00 0.00 66 1014.2
20260507061532 72 175 0.0 2.0 0.00 0.00 0.00 65 1014.2
20260507061324 73 175 0.0 2.0 0.00 0.00 0.00 65 1014.3
20260507060837 73 174 0.0 1.0 0.00 0.00 0.00 65 1014.5
20260507060321 73 173 0.0 2.0 0.00 0.00 0.00 65 1014.7
20260507060033 73 173 0.0 2.0 0.00 0.00 0.00 65 1014.7
20260507055834 73 173 1.0 2.0 0.00 0.00 0.00 65 1014.7
20260507055347 73 174 0.0 2.0 0.00 0.00 0.00 65 1014.7
20260507054851 73 172 0.0 1.0 0.00 0.00 0.00 65 1014.7
20260507054522 73 172 0.0 4.0 0.00 0.00 0.00 65 1014.6
20260507054343 73 172 0.0 4.0 0.00 0.00 0.00 64 1014.7
20260507053835 73 180 0.0 2.0 0.00 0.00 0.00 64 1014.8
20260507053348 74 180 0.0 1.0 0.00 0.00 0.00 64 1014.9
20260507053003 73 180 0.0 2.0 0.00 0.00 0.00 64 1014.9
20260507052832 74 180 0.0 2.0 0.00 0.00 0.00 64 1014.9
20260507052324 74 180 0.0 1.0 0.00 0.00 0.00 64 1015.0
20260507051837 74 180 0.0 3.0 0.00 0.00 0.00 64 1015.2
20260507051507 73 180 0.0 3.0 0.00 0.00 0.00 64 1015.0
20260507051342 74 181 0.0 3.0 0.00 0.00 0.00 64 1015.1
20260507050901 74 181 1.0 3.0 0.00 0.00 0.00 63 1015.1
20260507050323 74 182 0.0 2.0 0.00 0.00 0.00 63 1015.2
20260507050035 74 183 0.0 2.0 0.00 0.00 0.00 63 1015.1
20260507045836 74 182 1.0 2.0 0.00 0.00 0.00 63 1015.0
20260507045348 74 183 1.0 4.0 0.00 0.00 0.00 63 1015.0
20260507044832 74 182 1.0 4.0 0.00 0.00 0.00 63 1015.2
20260507044546 74 200 1.0 3.0 0.00 0.00 0.00 63 1015.0
20260507044325 75 200 1.0 6.0 0.00 0.00 0.00 63 1014.8
20260507043829 75 169 2.0 6.0 0.00 0.00 0.00 63 1015.0
20260507043321 75 206 2.0 4.0 0.00 0.00 0.00 62 1015.0
20260507043044 74 182 0.0 4.0 0.00 0.00 0.00 62 1014.9
20260507042835 75 182 2.0 4.0 0.00 0.00 0.00 62 1014.9
20260507042338 75 156 1.0 6.0 0.00 0.00 0.00 62 1015.0
20260507041831 75 150 3.0 7.0 0.00 0.00 0.00 61 1015.2
20260507041550 74 184 1.0 7.0 0.00 0.00 0.00 61 1015.1
20260507041345 75 173 3.0 7.0 0.00 0.00 0.00 61 1015.2
20260507040829 75 207 2.0 5.0 0.00 0.00 0.00 61 1015.2
20260507040343 75 201 2.0 5.0 0.00 0.00 0.00 61 1015.1
20260507040033 75 194 2.0 5.0 0.00 0.00 0.00 60 1015.1
20260507035835 75 196 2.0 4.0 0.00 0.00 0.00 61 1015.3
20260507035348 75 195 2.0 4.0 0.00 0.00 0.00 61 1015.5
20260507034830 75 222 2.0 4.0 0.00 0.00 0.00 61 1015.5
20260507034514 75 178 0.0 3.0 0.00 0.00 0.00 61 1015.4
20260507034320 75 178 1.0 3.0 0.00 0.00 0.00 61 1015.4
20260507033833 75 178 1.0 3.0 0.00 0.00 0.00 61 1015.3
20260507033333 75 172 1.0 3.0 0.00 0.00 0.00 61 1015.4
20260507033019 74 175 1.0 3.0 0.00 0.00 0.00 61 1015.3
20260507032825 75 171 2.0 3.0 0.00 0.00 0.00 62 1015.3
20260507032339 75 176 1.0 3.0 0.00 0.00 0.00 62 1015.2
20260507031853 75 184 1.0 2.0 0.00 0.00 0.00 62 1015.4
20260507031503 74 184 0.0 3.0 0.00 0.00 0.00 62 1015.4
20260507031336 75 184 1.0 3.0 0.00 0.00 0.00 62 1015.4
20260507030829 75 180 2.0 3.0 0.00 0.00 0.00 62 1015.4
20260507030342 75 184 2.0 3.0 0.00 0.00 0.00 62 1015.5
20260507030008 75 171 0.0 3.0 0.00 0.00 0.00 62 1015.3
20260507025845 75 176 1.0 3.0 0.00 0.00 0.00 62 1015.3
20260507025337 75 178 1.0 4.0 0.00 0.00 0.00 62 1015.2
20260507024830 75 230 1.0 3.0 0.00 0.00 0.00 62 1015.4
20260507024607 75 230 1.0 3.0 0.00 0.00 0.00 62 1015.3
20260507024343 75 230 1.0 3.0 0.00 0.00 0.00 62 1015.3
20260507023826 75 232 1.0 3.0 0.00 0.00 0.00 62 1015.1
20260507023339 76 232 1.0 3.0 0.00 0.00 0.00 61 1015.4
20260507023102 75 161 1.0 3.0 0.00 0.00 0.00 61 1015.3
20260507022823 76 161 1.0 3.0 0.00 0.00 0.00 61 1015.3
20260507022336 76 182 1.0 4.0 0.00 0.00 0.00 61 1015.3
20260507021829 76 211 2.0 6.0 0.00 0.00 0.00 61 1015.2
20260507021502 75 267 1.0 6.0 0.00 0.00 0.00 61 1015.1
20260507021332 76 277 1.0 6.0 0.00 0.00 0.00 61 1015.2
20260507020825 76 212 1.0 4.0 0.00 0.00 0.00 61 1015.1
20260507020359 76 196 2.0 4.0 0.00 0.00 0.00 61 1015.3
20260507020100 75 206 1.0 6.0 0.00 0.00 0.00 61 1015.1
20260507015821 75 225 2.0 6.0 0.00 0.00 0.00 61 1015.2
20260507015330 75 175 2.0 8.0 0.00 0.00 0.00 62 1015.1
20260507014823 75 204 2.0 8.0 0.00 0.00 0.00 62 1015.2
20260507014613 75 136 1.0 8.0 0.00 0.00 0.00 62 1015.2
20260507014326 75 193 1.0 2.0 0.00 0.00 0.00 62 1015.3
20260507013819 75 193 0.0 2.0 0.00 0.00 0.00 62 1015.2
20260507013352 76 193 1.0 3.0 0.00 0.00 0.00 62 1015.4
20260507013038 75 193 0.0 3.0 0.00 0.00 0.00 62 1015.3
20260507012905 76 193 0.0 3.0 0.00 0.00 0.00 61 1015.2
20260507012358 76 198 0.0 3.0 0.00 0.00 0.00 61 1015.3
20260507011830 76 198 1.0 6.0 0.00 0.00 0.00 61 1015.2
20260507011604 76 159 1.0 6.0 0.00 0.00 0.00 61 1014.8
20260507011334 76 165 0.0 6.0 0.00 0.00 0.00 61 1014.8
20260507010847 76 165 2.0 4.0 0.00 0.00 0.00 61 1015.1
20260507010339 76 152 1.0 4.0 0.00 0.00 0.00 60 1015.1
20260507010059 76 196 2.0 5.0 0.00 0.00 0.00 60 1014.9
20260507005831 76 203 2.0 5.0 0.00 0.00 0.00 60 1014.9
20260507005335 77 164 2.0 3.0 0.00 0.00 0.00 60 1015.0
20260507004828 77 169 2.0 6.0 0.00 0.00 0.00 60 1015.1
20260507004550 76 211 1.0 6.0 0.00 0.00 0.00 60 1015.0
20260507004341 77 209 2.0 6.0 0.00 0.00 0.00 60 1015.1
20260507003825 77 161 2.0 5.0 0.00 0.00 0.00 60 1015.0
20260507003355 77 198 2.0 6.0 0.00 0.00 0.00 60 1014.8
20260507003032 76 171 1.0 6.0 0.00 0.00 0.00 60 1014.7
20260507002823 77 183 2.0 6.0 0.00 0.00 0.00 60 1014.8
20260507002327 77 157 3.0 7.0 0.00 0.00 0.00 60 1014.6
20260507001820 77 213 1.0 7.0 0.00 0.00 0.00 60 1014.6
20260507001537 77 159 2.0 7.0 0.00 0.00 0.00 60 1014.5
20260507001333 77 223 3.0 7.0 0.00 0.00 0.00 61 1014.6
20260507000846 77 88 2.0 7.0 0.00 0.00 0.00 61 1014.6
20260507000329 77 198 2.0 7.0 0.00 0.00 0.00 62 1014.4
20260507000027 77 216 2.0 7.0 0.00 0.00 0.00 62 1014.3
20260506235822 78 190 2.0 7.0 0.00 0.00 0.00 62 1014.4
20260506235335 78 197 3.0 7.0 0.00 0.00 0.00 62 1014.3
20260506234848 78 170 2.0 6.0 0.00 0.00 0.00 62 1014.2
20260506234521 78 162 1.0 6.0 0.00 0.00 0.00 62 1014.2
20260506234331 78 188 1.0 6.0 0.00 0.00 0.00 62 1014.3
20260506233844 78 210 2.0 6.0 0.00 0.00 0.00 62 1014.4
20260506233328 79 171 3.0 6.0 0.00 0.00 0.00 62 1014.3
20260506233026 78 246 2.0 6.0 0.00 0.00 0.00 62 1014.3
20260506232821 79 156 1.0 4.0 0.00 0.00 0.00 61 1014.3
20260506232334 79 79 2.0 6.0 0.00 0.00 0.00 61 1014.2
20260506231838 79 269 1.0 9.0 0.00 0.00 0.00 61 1014.2
20260506231532 79 165 3.0 9.0 0.00 0.00 0.00 60 1014.1
20260506231330 79 119 2.0 9.0 0.00 0.00 0.00 61 1014.1
20260506230843 79 157 2.0 6.0 0.00 0.00 0.00 61 1014.2
20260506230344 80 64 2.0 8.0 0.00 0.00 0.00 61 1014.1
20260506230010 79 355 2.0 8.0 0.00 0.00 0.00 61 1014.1
20260506225836 80 109 3.0 8.0 0.00 0.00 0.00 61 1014.2
20260506225329 80 168 2.0 11.0 0.00 0.00 0.00 60 1014.2
20260506224826 80 227 3.0 7.0 0.00 0.00 0.00 60 1014.3
20260506224512 80 155 2.0 9.0 0.00 0.00 0.00 60 1014.3
20260506224409 80 225 3.0 9.0 0.00 0.00 0.00 60 1014.4
20260506223831 80 150 2.0 9.0 0.00 0.00 0.00 60 1014.3
20260506223324 80 50 3.0 9.0 0.00 0.00 0.00 60 1014.4
20260506223100 80 146 2.0 9.0 0.00 0.00 0.00 60 1014.3
20260506222828 81 94 3.0 9.0 0.00 0.00 0.00 60 1014.4
20260506222320 81 146 3.0 8.0 0.00 0.00 0.00 59 1014.4
20260506221834 81 225 3.0 8.0 0.00 0.00 0.00 59 1014.4
20260506221608 81 101 3.0 8.0 0.00 0.00 0.00 59 1014.2
20260506221337 82 158 4.0 8.0 0.00 0.00 0.00 59 1014.4
20260506220831 82 86 4.0 8.0 0.00 0.00 0.00 58 1014.3
20260506220343 82 158 3.0 8.0 0.00 0.00 0.00 59 1014.3
20260506220105 82 108 3.0 8.0 0.00 0.00 0.00 59 1014.2
20260506215828 82 100 2.0 8.0 0.00 0.00 0.00 59 1014.2
20260506215341 83 66 3.0 7.0 0.00 0.00 0.00 58 1014.2
20260506214833 83 92 3.0 6.0 0.00 0.00 0.00 59 1014.2
20260506214548 83 167 3.0 7.0 0.00 0.00 0.00 59 1014.1
20260506214346 83 215 2.0 6.0 0.00 0.00 0.00 59 1014.2
20260506213829 83 134 2.0 8.0 0.00 0.00 0.00 60 1014.1
20260506213322 84 109 4.0 10.0 0.00 0.00 0.00 59 1014.2
20260506213053 84 80 2.0 10.0 0.00 0.00 0.00 59 1014.1
20260506212838 84 217 3.0 10.0 0.00 0.00 0.00 59 1014.2
20260506212321 84 55 3.0 9.0 0.00 0.00 0.00 58 1014.2
20260506211834 85 95 2.0 9.0 0.00 0.00 0.00 58 1014.2
20260506211556 84 132 2.0 9.0 0.00 0.00 0.00 59 1014.2
20260506211347 85 123 2.0 10.0 0.00 0.00 0.00 58 1014.3
20260506210827 85 71 3.0 10.0 0.00 0.00 0.00 58 1014.3
20260506210429 85 68 4.0 10.0 0.00 0.00 0.00 57 1014.3
20260506210016 85 155 2.0 9.0 0.00 0.00 0.00 58 1014.3
20260506205831 85 195 2.0 9.0 0.00 0.00 0.00 57 1014.4
20260506205325 85 114 3.0 9.0 0.00 0.00 0.00 56 1014.5
20260506204829 85 174 3.0 8.0 0.00 0.00 0.00 56 1014.4
20260506204524 85 155 3.0 8.0 0.00 0.00 0.00 56 1014.3
20260506204321 85 72 4.0 7.0 0.00 0.00 0.00 56 1014.4
20260506203856 86 128 3.0 7.0 0.00 0.00 0.00 56 1014.5
20260506203348 85 100 2.0 7.0 0.00 0.00 0.00 57 1014.5
20260506203004 84 57 1.0 9.0 0.00 0.00 0.00 58 1014.3
20260506202831 85 201 2.0 9.0 0.00 0.00 0.00 58 1014.4
20260506202345 85 38 3.0 9.0 0.00 0.00 0.00 57 1014.5
20260506201837 85 309 3.0 9.0 0.00 0.00 0.00 57 1014.7
20260506201615 84 84 2.0 8.0 0.00 0.00 0.00 57 1014.5
20260506201321 85 113 3.0 9.0 0.00 0.00 0.00 57 1014.7
20260506200834 85 109 3.0 9.0 0.00 0.00 0.00 56 1014.8
20260506200323 85 186 2.0 10.0 0.00 0.00 0.00 57 1014.8
20260506200055 84 74 2.0 10.0 0.00 0.00 0.00 56 1014.8
20260506195856 85 168 3.0 10.0 0.00 0.00 0.00 56 1014.9
20260506195319 85 115 3.0 7.0 0.00 0.00 0.00 56 1015.0
20260506194848 85 154 3.0 13.0 0.00 0.00 0.00 55 1015.0
20260506194517 84 279 3.0 13.0 0.00 0.00 0.00 54 1015.0
20260506194320 85 194 5.0 13.0 0.00 0.00 0.00 54 1015.0
20260506193833 85 77 3.0 8.0 0.00 0.00 0.00 54 1015.1
20260506193348 86 178 4.0 9.0 0.00 0.00 0.00 54 1015.2
20260506193104 85 166 2.0 9.0 0.00 0.00 0.00 56 1015.1
20260506192829 85 90 3.0 12.0 0.00 0.00 0.00 55 1015.2
20260506192322 85 96 3.0 12.0 0.00 0.00 0.00 55 1015.3
20260506191856 86 30 4.0 10.0 0.00 0.00 0.00 54 1015.3
20260506191549 85 90 3.0 10.0 0.00 0.00 0.00 54 1015.4
20260506191348 86 9 3.0 10.0 0.00 0.00 0.00 54 1015.5
20260506190840 87 91 4.0 8.0 0.00 0.00 0.00 55 1015.4
20260506190324 87 80 3.0 7.0 0.00 0.00 0.00 55 1015.6
20260506190032 86 146 2.0 7.0 0.00 0.00 0.00 55 1015.5
20260506185857 86 149 3.0 9.0 0.00 0.00 0.00 55 1015.6
20260506185329 87 76 3.0 9.0 0.00 0.00 0.00 54 1015.7
20260506184832 87 88 3.0 8.0 0.00 0.00 0.00 54 1015.6
20260506184517 86 123 2.0 8.0 0.00 0.00 0.00 55 1015.6
20260506184325 87 196 3.0 8.0 0.00 0.00 0.00 54 1015.6
20260506183858 87 248 2.0 9.0 0.00 0.00 0.00 54 1015.8
20260506183330 87 60 3.0 9.0 0.00 0.00 0.00 53 1015.8
20260506183104 86 186 3.0 9.0 0.00 0.00 0.00 52 1015.8
20260506182830 87 355 2.0 9.0 0.00 0.00 0.00 53 1015.9
20260506182343 87 159 2.0 7.0 0.00 0.00 0.00 53 1015.9
20260506181836 88 52 2.0 8.0 0.00 0.00 0.00 51 1015.9
20260506181549 87 94 2.0 8.0 0.00 0.00 0.00 50 1015.8
20260506181319 88 176 3.0 8.0 0.00 0.00 0.00 51 1016.0
20260506180832 89 36 2.0 6.0 0.00 0.00 0.00 50 1016.0
20260506180326 89 224 4.0 9.0 0.00 0.00 0.00 43 1016.1
20260506180053 88 169 2.0 9.0 0.00 0.00 0.00 43 1016.0
20260506175839 89 223 4.0 9.0 0.00 0.00 0.00 44 1016.2
20260506175322 88 94 3.0 6.0 0.00 0.00 0.00 46 1016.2
20260506174837 89 131 1.0 6.0 0.00 0.00 0.00 45 1016.2
20260506174557 88 176 2.0 6.0 0.00 0.00 0.00 45 1016.2
20260506174320 89 197 1.0 6.0 0.00 0.00 0.00 45 1016.3
20260506173905 88 116 2.0 5.0 0.00 0.00 0.00 46 1016.4
20260506173346 87 209 2.0 8.0 0.00 0.00 0.00 49 1016.5
20260506173019 87 207 3.0 8.0 0.00 0.00 0.00 48 1016.5
20260506172909 87 161 4.0 8.0 0.00 0.00 0.00 48 1016.6
20260506172351 87 187 3.0 6.0 0.00 0.00 0.00 47 1016.6
20260506171823 87 188 4.0 9.0 0.00 0.00 0.00 47 1016.7
20260506171554 86 213 3.0 9.0 0.00 0.00 0.00 48 1016.7
20260506171336 86 150 5.0 9.0 0.00 0.00 0.00 47 1016.8
20260506170905 86 213 3.0 6.0 0.00 0.00 0.00 49 1016.8
20260506170356 86 206 4.0 9.0 0.00 0.00 0.00 49 1016.8
20260506170008 85 225 4.0 9.0 0.00 0.00 0.00 49 1016.8
20260506165819 86 254 4.0 9.0 0.00 0.00 0.00 48 1016.9
20260506165332 86 202 5.0 7.0 0.00 0.00 0.00 49 1017.0
20260506164845 86 204 3.0 9.0 0.00 0.00 0.00 50 1016.9
20260506164512 85 214 2.0 9.0 0.00 0.00 0.00 49 1016.9
20260506164328 86 198 4.0 9.0 0.00 0.00 0.00 48 1017.0
20260506163822 85 202 3.0 7.0 0.00 0.00 0.00 50 1017.2
20260506163325 85 219 4.0 8.0 0.00 0.00 0.00 50 1017.3
20260506163030 85 174 4.0 8.0 0.00 0.00 0.00 51 1017.2
20260506162839 85 169 4.0 10.0 0.00 0.00 0.00 51 1017.3
20260506162332 85 190 4.0 10.0 0.00 0.00 0.00 50 1017.4
20260506161837 84 215 3.0 10.0 0.00 0.00 0.00 52 1017.4
20260506161524 84 219 3.0 10.0 0.00 0.00 0.00 51 1017.3
20260506161330 84 174 4.0 10.0 0.00 0.00 0.00 51 1017.4
20260506160842 84 203 5.0 11.0 0.00 0.00 0.00 51 1017.3
20260506160334 84 171 6.0 14.0 0.00 0.00 0.00 51 1017.4
20260506160012 83 229 3.0 14.0 0.00 0.00 0.00 52 1017.5
20260506155837 84 194 5.0 14.0 0.00 0.00 0.00 51 1017.5
20260506155330 83 189 4.0 9.0 0.00 0.00 0.00 52 1017.5
20260506154843 83 198 4.0 10.0 0.00 0.00 0.00 53 1017.4
20260506154511 82 200 3.0 10.0 0.00 0.00 0.00 53 1017.4
20260506154327 83 159 4.0 10.0 0.00 0.00 0.00 53 1017.4
20260506153819 82 198 5.0 10.0 0.00 0.00 0.00 53 1017.5
20260506153349 82 227 3.0 7.0 0.00 0.00 0.00 54 1017.4
20260506153059 82 167 3.0 8.0 0.00 0.00 0.00 54 1017.3
20260506152828 82 267 4.0 8.0 0.00 0.00 0.00 54 1017.4
20260506152321 82 202 3.0 9.0 0.00 0.00 0.00 54 1017.3
20260506151835 82 182 4.0 9.0 0.00 0.00 0.00 54 1017.3
20260506151602 81 206 4.0 9.0 0.00 0.00 0.00 54 1017.3
20260506151318 82 217 3.0 7.0 0.00 0.00 0.00 54 1017.2
20260506150852 82 217 4.0 6.0 0.00 0.00 0.00 54 1017.2
20260506150324 81 178 2.0 6.0 0.00 0.00 0.00 55 1017.3
20260506150045 80 145 2.0 10.0 0.00 0.00 0.00 56 1017.2
20260506145836 81 201 3.0 10.0 0.00 0.00 0.00 56 1017.3
20260506145321 80 187 5.0 10.0 0.00 0.00 0.00 54 1017.3
20260506144833 80 207 4.0 10.0 0.00 0.00 0.00 55 1017.2
20260506144550 80 232 4.0 10.0 0.00 0.00 0.00 55 1017.2
20260506144346 80 207 3.0 11.0 0.00 0.00 0.00 56 1017.3
20260506143830 79 174 4.0 11.0 0.00 0.00 0.00 56 1017.2
20260506143323 79 188 4.0 8.0 0.00 0.00 0.00 56 1017.2
20260506143054 79 241 5.0 10.0 0.00 0.00 0.00 56 1017.2
20260506142856 79 211 3.0 10.0 0.00 0.00 0.00 58 1017.2
20260506142347 79 218 5.0 10.0 0.00 0.00 0.00 58 1017.2
20260506141852 78 218 4.0 10.0 0.00 0.00 0.00 58 1017.2
20260506141516 78 206 3.0 8.0 0.00 0.00 0.00 59 1017.1
20260506141324 78 193 4.0 8.0 0.00 0.00 0.00 59 1017.2
20260506140837 78 165 4.0 10.0 0.00 0.00 0.00 59 1017.1
20260506140347 78 222 5.0 11.0 0.00 0.00 0.00 60 1017.1
20260506140105 77 207 5.0 11.0 0.00 0.00 0.00 60 1017.1
20260506135829 77 237 5.0 11.0 0.00 0.00 0.00 60 1017.1
20260506135321 77 235 5.0 15.0 0.00 0.00 0.00 60 1017.2
20260506134834 77 244 5.0 9.0 0.00 0.00 0.00 61 1017.3
20260506134504 76 180 2.0 9.0 0.00 0.00 0.00 61 1017.2
20260506134338 77 185 4.0 9.0 0.00 0.00 0.00 61 1017.3
20260506133831 77 153 3.0 8.0 0.00 0.00 0.00 61 1017.3
20260506133344 77 257 4.0 8.0 0.00 0.00 0.00 61 1017.2
20260506133008 76 140 3.0 7.0 0.00 0.00 0.00 62 1017.1
20260506132828 77 149 4.0 7.0 0.00 0.00 0.00 62 1017.2
20260506132320 76 162 3.0 6.0 0.00 0.00 0.00 63 1017.2
20260506131824 76 169 2.0 6.0 0.00 0.00 0.00 64 1017.1
20260506131517 75 169 3.0 6.0 0.00 0.00 0.00 65 1017.0
20260506131335 75 216 3.0 7.0 0.00 0.00 0.00 65 1017.0
20260506130848 75 223 2.0 6.0 0.00 0.00 0.00 66 1017.2
20260506130340 74 194 1.0 4.0 0.00 0.00 0.00 66 1017.2
20260506130038 73 191 2.0 6.0 0.00 0.00 0.00 67 1017.1
20260506125852 74 144 3.0 6.0 0.00 0.00 0.00 67 1017.2
20260506125325 73 184 3.0 8.0 0.00 0.00 0.00 67 1017.2
20260506124829 73 194 3.0 8.0 0.00 0.00 0.00 68 1017.2
20260506124520 72 198 1.0 4.0 0.00 0.00 0.00 68 1017.0
20260506124321 72 200 2.0 4.0 0.00 0.00 0.00 69 1017.0
20260506123834 72 215 1.0 2.0 0.00 0.00 0.00 70 1017.0
20260506123404 71 205 0.0 3.0 0.00 0.00 0.00 70 1017.0
20260506123105 70 205 0.0 3.0 0.00 0.00 0.00 70 1016.9
20260506122827 70 205 1.0 3.0 0.00 0.00 0.00 71 1016.9
20260506122320 70 188 0.0 3.0 0.00 0.00 0.00 72 1017.0
20260506121853 69 153 0.0 2.0 0.00 0.00 0.00 73 1016.9
20260506121548 68 153 0.0 2.0 0.00 0.00 0.00 73 1016.8
20260506121345 68 154 0.0 2.0 0.00 0.00 0.00 74 1016.8
20260506120825 67 179 0.0 0.0 0.00 0.00 0.00 74 1016.7
20260506120338 67 178 0.0 2.0 0.00 0.00 0.00 75 1016.7
20260506120107 66 178 0.0 2.0 0.00 0.00 0.00 75 1016.7
20260506115822 66 178 0.0 2.0 0.00 0.00 0.00 76 1016.7
20260506115335 66 178 0.0 2.0 0.00 0.00 0.00 77 1016.7
20260506114827 65 178 0.0 1.0 0.00 0.00 0.00 77 1016.6